| time (UTC) | temp F | wind direction | speed knots | gust knots | rain 1hr in | rain 24hr in | rain mn in | humidity % | barometer mb |
| 20260831125506 | 53 | 14 | 3.5 | 8.7 | 0.00 | 0.00 | 0.00 | 80 | 1026.7 |
| 20260831125006 | 52 | 45 | 5.2 | 8.7 | 0.00 | 0.00 | 0.00 | 81 | 1026.8 |
| 20260831124517 | 49 | 333 | 3.5 | 7.0 | 0.00 | 0.00 | 0.00 | 78 | 1027.0 |
| 20260831124003 | 49 | 344 | 1.7 | 7.0 | 0.00 | 0.00 | 0.00 | 76 | 1027.0 |
| 20260831123509 | 49 | 320 | 0.0 | 3.5 | 0.00 | 0.00 | 0.00 | 74 | 1027.0 |
| 20260831123006 | 50 | 320 | 1.7 | 3.5 | 0.00 | 0.00 | 0.00 | 74 | 1027.1 |
| 20260831122503 | 51 | 319 | 1.7 | 3.5 | 0.00 | 0.00 | 0.00 | 73 | 1027.1 |
| 20260831122005 | 51 | 343 | 1.7 | 3.5 | 0.00 | 0.00 | 0.00 | 72 | 1027.2 |
| 20260831121505 | 52 | 348 | 1.7 | 3.5 | 0.00 | 0.00 | 0.00 | 70 | 1027.3 |
| 20260831121006 | 53 | 7 | 0.9 | 3.5 | 0.00 | 0.00 | 0.00 | 70 | 1027.2 |
| 20260831120505 | 53 | 29 | 0.9 | 3.5 | 0.00 | 0.00 | 0.00 | 69 | 1027.3 |
| 20260831120039 | 53 | 71 | 0.9 | 4.3 | 0.00 | 0.00 | 0.00 | 69 | 1027.2 |
| 20260831115507 | 53 | 357 | 1.7 | 4.3 | 0.00 | 0.00 | 0.00 | 69 | 1027.3 |
| 20260831115004 | 54 | 15 | 0.9 | 4.3 | 0.00 | 0.00 | 0.00 | 68 | 1027.3 |
| 20260831114526 | 54 | 38 | 0.9 | 4.3 | 0.00 | 0.00 | 0.00 | 68 | 1027.4 |
| 20260831114006 | 54 | 22 | 0.9 | 5.2 | 0.00 | 0.00 | 0.00 | 67 | 1027.5 |
| 20260831113505 | 54 | 54 | 0.9 | 5.2 | 0.00 | 0.00 | 0.00 | 67 | 1027.5 |
| 20260831113019 | 54 | 66 | 0.9 | 4.3 | 0.00 | 0.00 | 0.00 | 67 | 1027.5 |
| 20260831112506 | 54 | 8 | 0.9 | 4.3 | 0.00 | 0.00 | 0.00 | 67 | 1027.5 |
| 20260831112014 | 54 | 37 | 1.7 | 4.3 | 0.00 | 0.00 | 0.00 | 67 | 1027.6 |
| 20260831111505 | 54 | 65 | 1.7 | 4.3 | 0.00 | 0.00 | 0.00 | 67 | 1027.6 |
| 20260831111006 | 54 | 353 | 0.9 | 3.5 | 0.00 | 0.00 | 0.00 | 67 | 1027.6 |
| 20260831110509 | 54 | 37 | 0.9 | 3.5 | 0.00 | 0.00 | 0.00 | 66 | 1027.6 |
| 20260831110004 | 54 | 22 | 0.9 | 3.5 | 0.00 | 0.00 | 0.00 | 66 | 1027.5 |
| 20260831105504 | 55 | 54 | 0.0 | 2.6 | 0.00 | 0.00 | 0.00 | 66 | 1027.5 |
| 20260831105011 | 55 | 51 | 0.0 | 2.6 | 0.00 | 0.00 | 0.00 | 65 | 1027.6 |
| 20260831104509 | 55 | 62 | 0.9 | 3.5 | 0.00 | 0.00 | 0.00 | 65 | 1027.5 |
| 20260831104007 | 56 | 54 | 0.9 | 4.3 | 0.00 | 0.00 | 0.00 | 65 | 1027.6 |
| 20260831103514 | 56 | 47 | 0.0 | 4.3 | 0.00 | 0.00 | 0.00 | 65 | 1027.6 |
| 20260831103004 | 56 | 62 | 1.7 | 3.5 | 0.00 | 0.00 | 0.00 | 65 | 1027.5 |
| 20260831102512 | 56 | 28 | 0.0 | 4.3 | 0.00 | 0.00 | 0.00 | 65 | 1027.4 |
| 20260831102009 | 56 | 38 | 1.7 | 4.3 | 0.00 | 0.00 | 0.00 | 65 | 1027.5 |
| 20260831101533 | 56 | 30 | 1.7 | 4.3 | 0.00 | 0.00 | 0.00 | 66 | 1027.6 |
| 20260831101012 | 56 | 47 | 1.7 | 4.3 | 0.00 | 0.00 | 0.00 | 66 | 1027.6 |
| 20260831100504 | 56 | 31 | 1.7 | 4.3 | 0.00 | 0.00 | 0.00 | 66 | 1027.6 |
| 20260831100025 | 56 | 39 | 0.0 | 3.5 | 0.00 | 0.00 | 0.00 | 66 | 1027.6 |
| 20260831095504 | 56 | 19 | 0.9 | 3.5 | 0.00 | 0.00 | 0.00 | 66 | 1027.7 |
| 20260831095003 | 56 | 46 | 0.9 | 3.5 | 0.00 | 0.00 | 0.00 | 66 | 1027.7 |
| 20260831094509 | 56 | 43 | 0.9 | 3.5 | 0.00 | 0.00 | 0.00 | 66 | 1027.8 |
| 20260831094007 | 56 | 50 | 0.9 | 4.3 | 0.00 | 0.00 | 0.00 | 66 | 1027.8 |
| 20260831093519 | 56 | 39 | 2.6 | 4.3 | 0.00 | 0.00 | 0.00 | 66 | 1027.8 |
| 20260831093027 | 56 | 20 | 0.9 | 4.3 | 0.00 | 0.00 | 0.00 | 66 | 1027.9 |
| 20260831092507 | 56 | 33 | 1.7 | 3.5 | 0.00 | 0.00 | 0.00 | 66 | 1028.0 |
| 20260831092011 | 57 | 23 | 0.0 | 5.2 | 0.00 | 0.00 | 0.00 | 67 | 1027.8 |
| 20260831091515 | 57 | 37 | 0.0 | 5.2 | 0.00 | 0.00 | 0.00 | 66 | 1028.0 |
| 20260831091004 | 57 | 11 | 0.9 | 3.5 | 0.00 | 0.00 | 0.00 | 66 | 1028.0 |
| 20260831090515 | 57 | 55 | 0.0 | 2.6 | 0.00 | 0.00 | 0.00 | 66 | 1028.0 |
| 20260831090012 | 57 | 58 | 0.0 | 2.6 | 0.00 | 0.00 | 0.00 | 66 | 1028.0 |
| 20260831085516 | 57 | 47 | 0.0 | 2.6 | 0.00 | 0.00 | 0.00 | 66 | 1028.0 |
| 20260831085012 | 57 | 56 | 0.9 | 2.6 | 0.00 | 0.00 | 0.00 | 67 | 1027.9 |
| 20260831084508 | 57 | 61 | 0.0 | 2.6 | 0.00 | 0.00 | 0.00 | 67 | 1028.0 |
| 20260831084003 | 58 | 61 | 0.9 | 2.6 | 0.00 | 0.00 | 0.00 | 66 | 1028.1 |
| 20260831083503 | 58 | 61 | 0.9 | 2.6 | 0.00 | 0.00 | 0.00 | 66 | 1028.1 |
| 20260831083010 | 58 | 52 | 0.0 | 1.7 | 0.00 | 0.00 | 0.00 | 65 | 1028.1 |
| 20260831082508 | 58 | 54 | 0.0 | 1.7 | 0.00 | 0.00 | 0.00 | 65 | 1028.1 |
| 20260831082013 | 58 | 54 | 0.0 | 3.5 | 0.00 | 0.00 | 0.00 | 65 | 1028.1 |
| 20260831081515 | 59 | 54 | 0.0 | 3.5 | 0.00 | 0.00 | 0.00 | 65 | 1028.1 |
| 20260831081013 | 59 | 77 | 0.0 | 1.7 | 0.00 | 0.00 | 0.00 | 65 | 1028.1 |
| 20260831080504 | 59 | 77 | 0.0 | 0.9 | 0.00 | 0.00 | 0.00 | 64 | 1028.1 |
| 20260831080029 | 60 | 77 | 0.0 | 2.6 | 0.00 | 0.00 | 0.00 | 64 | 1028.1 |
| 20260831075510 | 60 | 77 | 0.9 | 3.5 | 0.00 | 0.00 | 0.00 | 63 | 1028.1 |
| 20260831075013 | 61 | 88 | 0.9 | 3.5 | 0.00 | 0.00 | 0.00 | 63 | 1028.1 |
| 20260831074530 | 61 | 95 | 1.7 | 5.2 | 0.00 | 0.00 | 0.00 | 63 | 1028.0 |
| 20260831074010 | 61 | 91 | 1.7 | 5.2 | 0.00 | 0.00 | 0.00 | 62 | 1028.0 |
| 20260831073515 | 61 | 95 | 2.6 | 5.2 | 0.00 | 0.00 | 0.00 | 62 | 1028.0 |
| 20260831073018 | 61 | 105 | 2.6 | 5.2 | 0.00 | 0.00 | 0.00 | 61 | 1028.0 |
| 20260831072504 | 62 | 102 | 2.6 | 4.3 | 0.00 | 0.00 | 0.00 | 61 | 1028.0 |
| 20260831072010 | 62 | 115 | 1.7 | 3.5 | 0.00 | 0.00 | 0.00 | 61 | 1028.0 |
| 20260831071526 | 62 | 115 | 1.7 | 5.2 | 0.00 | 0.00 | 0.00 | 60 | 1028.0 |
| 20260831071016 | 62 | 104 | 2.6 | 5.2 | 0.00 | 0.00 | 0.00 | 59 | 1028.0 |
| 20260831070511 | 62 | 104 | 1.7 | 3.5 | 0.00 | 0.00 | 0.00 | 62 | 1028.1 |
| 20260831070016 | 62 | 156 | 1.7 | 4.3 | 0.00 | 0.00 | 0.00 | 63 | 1028.2 |
| 20260831065521 | 63 | 185 | 2.6 | 4.3 | 0.00 | 0.00 | 0.00 | 64 | 1028.2 |
| 20260831065013 | 63 | 200 | 1.7 | 3.5 | 0.00 | 0.00 | 0.00 | 62 | 1028.2 |
| 20260831064528 | 63 | 214 | 0.9 | 2.6 | 0.00 | 0.00 | 0.00 | 62 | 1028.3 |
| 20260831064016 | 64 | 214 | 0.9 | 2.6 | 0.00 | 0.00 | 0.00 | 63 | 1028.2 |
| 20260831063511 | 64 | 214 | 0.9 | 3.5 | 0.00 | 0.00 | 0.00 | 61 | 1028.3 |
| 20260831063032 | 64 | 232 | 0.0 | 3.5 | 0.00 | 0.00 | 0.00 | 60 | 1028.3 |
| 20260831062513 | 65 | 231 | 1.7 | 3.5 | 0.00 | 0.00 | 0.00 | 60 | 1028.4 |
| 20260831062011 | 65 | 243 | 0.9 | 3.5 | 0.00 | 0.00 | 0.00 | 59 | 1028.5 |
| 20260831061535 | 65 | 101 | 0.0 | 0.0 | 0.00 | 0.00 | 0.00 | 61 | 1028.5 |
| 20260831061017 | 64 | 101 | 0.0 | 2.6 | 0.00 | 0.00 | 0.00 | 63 | 1028.5 |
| 20260831060511 | 64 | 101 | 0.0 | 3.5 | 0.00 | 0.00 | 0.00 | 61 | 1028.5 |
| 20260831060021 | 63 | 101 | 0.9 | 4.3 | 0.00 | 0.00 | 0.00 | 61 | 1028.6 |
| 20260831055511 | 63 | 108 | 1.7 | 4.3 | 0.00 | 0.00 | 0.00 | 62 | 1028.5 |
| 20260831055011 | 63 | 114 | 2.6 | 6.1 | 0.00 | 0.00 | 0.00 | 63 | 1028.5 |
| 20260831054524 | 63 | 120 | 2.6 | 6.1 | 0.00 | 0.00 | 0.00 | 61 | 1028.5 |
| 20260831054013 | 64 | 119 | 2.6 | 4.3 | 0.00 | 0.00 | 0.00 | 61 | 1028.5 |
| 20260831053515 | 63 | 159 | 1.7 | 4.3 | 0.00 | 0.00 | 0.00 | 60 | 1028.5 |
| 20260831053024 | 63 | 141 | 2.6 | 5.2 | 0.00 | 0.00 | 0.00 | 58 | 1028.5 |
| 20260831052502 | 63 | 96 | 1.7 | 5.2 | 0.00 | 0.00 | 0.00 | 58 | 1028.6 |
| 20260831052006 | 63 | 156 | 1.7 | 4.3 | 0.00 | 0.00 | 0.00 | 60 | 1028.6 |
| 20260831051516 | 63 | 135 | 1.7 | 4.3 | 0.00 | 0.00 | 0.00 | 61 | 1028.7 |
| 20260831051008 | 63 | 135 | 2.6 | 6.1 | 0.00 | 0.00 | 0.00 | 61 | 1028.8 |
| 20260831050504 | 63 | 151 | 3.5 | 6.1 | 0.00 | 0.00 | 0.00 | 61 | 1028.9 |
| 20260831050011 | 63 | 204 | 0.9 | 4.3 | 0.00 | 0.00 | 0.00 | 60 | 1029.0 |
| 20260831045504 | 62 | 180 | 2.6 | 4.3 | 0.00 | 0.00 | 0.00 | 61 | 1029.1 |
| 20260831045012 | 62 | 123 | 2.6 | 4.3 | 0.00 | 0.00 | 0.00 | 61 | 1029.2 |
| 20260831044514 | 62 | 192 | 1.7 | 4.3 | 0.00 | 0.00 | 0.00 | 61 | 1029.2 |
| 20260831044004 | 62 | 180 | 2.6 | 4.3 | 0.00 | 0.00 | 0.00 | 61 | 1029.2 |
| 20260831043512 | 62 | 180 | 2.6 | 4.3 | 0.00 | 0.00 | 0.00 | 61 | 1029.4 |
| 20260831043009 | 62 | 219 | 2.6 | 4.3 | 0.00 | 0.00 | 0.00 | 63 | 1029.5 |
| 20260831042503 | 62 | 219 | 3.5 | 4.3 | 0.00 | 0.00 | 0.00 | 63 | 1029.5 |
| 20260831042003 | 61 | 235 | 2.6 | 4.3 | 0.00 | 0.00 | 0.00 | 63 | 1029.5 |
| 20260831041508 | 61 | 215 | 1.7 | 4.3 | 0.00 | 0.00 | 0.00 | 63 | 1029.6 |
| 20260831041006 | 61 | 246 | 2.6 | 7.0 | 0.00 | 0.00 | 0.00 | 65 | 1029.6 |
| 20260831040508 | 61 | 190 | 2.6 | 7.0 | 0.00 | 0.00 | 0.00 | 63 | 1029.7 |
| 20260831040006 | 61 | 208 | 0.9 | 7.0 | 0.00 | 0.00 | 0.00 | 63 | 1029.8 |
| 20260831035509 | 61 | 189 | 1.7 | 7.0 | 0.00 | 0.00 | 0.00 | 63 | 1029.8 |
| 20260831035004 | 60 | 185 | 2.6 | 7.0 | 0.00 | 0.00 | 0.00 | 64 | 1029.8 |
| 20260831034515 | 61 | 212 | 3.5 | 7.0 | 0.00 | 0.00 | 0.00 | 65 | 1029.9 |
| 20260831034009 | 60 | 200 | 3.5 | 7.0 | 0.00 | 0.00 | 0.00 | 64 | 1030.0 |
| 20260831033506 | 60 | 165 | 4.3 | 7.8 | 0.00 | 0.00 | 0.00 | 66 | 1030.1 |
| 20260831033034 | 60 | 185 | 2.6 | 7.8 | 0.00 | 0.00 | 0.00 | 67 | 1030.2 |
| 20260831032508 | 60 | 237 | 4.3 | 7.8 | 0.00 | 0.00 | 0.00 | 67 | 1030.3 |
| 20260831032006 | 60 | 213 | 2.6 | 7.8 | 0.00 | 0.00 | 0.00 | 66 | 1030.2 |
| 20260831031521 | 59 | 204 | 2.6 | 7.8 | 0.00 | 0.00 | 0.00 | 67 | 1030.2 |
| 20260831031007 | 59 | 235 | 2.6 | 6.1 | 0.00 | 0.00 | 0.00 | 65 | 1030.3 |
| 20260831030503 | 59 | 170 | 2.6 | 7.0 | 0.00 | 0.00 | 0.00 | 68 | 1030.4 |
| 20260831030004 | 59 | 198 | 2.6 | 7.8 | 0.00 | 0.00 | 0.00 | 69 | 1030.5 |
| 20260831025504 | 59 | 194 | 4.3 | 7.8 | 0.00 | 0.00 | 0.00 | 67 | 1030.6 |
| 20260831025017 | 58 | 223 | 3.5 | 7.8 | 0.00 | 0.00 | 0.00 | 69 | 1030.8 |
| 20260831024511 | 58 | 208 | 4.3 | 7.8 | 0.00 | 0.00 | 0.00 | 69 | 1030.9 |
| 20260831024004 | 58 | 197 | 5.2 | 8.7 | 0.00 | 0.00 | 0.00 | 70 | 1030.8 |
| 20260831023513 | 58 | 217 | 5.2 | 8.7 | 0.00 | 0.00 | 0.00 | 70 | 1030.8 |
| 20260831023010 | 58 | 195 | 3.5 | 7.8 | 0.00 | 0.00 | 0.00 | 70 | 1030.9 |
| 20260831022514 | 57 | 126 | 3.5 | 8.7 | 0.00 | 0.00 | 0.00 | 71 | 1031.0 |
| 20260831022011 | 57 | 202 | 3.5 | 8.7 | 0.00 | 0.00 | 0.00 | 72 | 1031.1 |
| 20260831021510 | 57 | 161 | 4.3 | 8.7 | 0.00 | 0.00 | 0.00 | 71 | 1031.3 |
| 20260831021014 | 57 | 206 | 2.6 | 7.8 | 0.00 | 0.00 | 0.00 | 72 | 1031.4 |
| 20260831020510 | 57 | 170 | 4.3 | 7.8 | 0.00 | 0.00 | 0.00 | 73 | 1031.3 |
| 20260831020031 | 56 | 216 | 4.3 | 8.7 | 0.00 | 0.00 | 0.00 | 72 | 1031.4 |
| 20260831015505 | 56 | 197 | 5.2 | 8.7 | 0.00 | 0.00 | 0.00 | 73 | 1031.4 |
| 20260831015003 | 56 | 166 | 3.5 | 7.0 | 0.00 | 0.00 | 0.00 | 75 | 1031.6 |
| 20260831014530 | 56 | 172 | 4.3 | 7.0 | 0.00 | 0.00 | 0.00 | 74 | 1031.7 |
| 20260831014008 | 56 | 202 | 2.6 | 7.0 | 0.00 | 0.00 | 0.00 | 73 | 1031.6 |
| 20260831013510 | 56 | 209 | 3.5 | 7.8 | 0.00 | 0.00 | 0.00 | 73 | 1031.5 |
| 20260831013026 | 55 | 206 | 1.7 | 7.8 | 0.00 | 0.00 | 0.00 | 75 | 1031.6 |
| 20260831012511 | 55 | 198 | 2.6 | 7.8 | 0.00 | 0.00 | 0.00 | 73 | 1031.7 |
| 20260831012011 | 55 | 175 | 2.6 | 7.8 | 0.00 | 0.00 | 0.00 | 75 | 1032.0 |
| 20260831011523 | 54 | 201 | 2.6 | 7.8 | 0.00 | 0.00 | 0.00 | 75 | 1032.0 |
| 20260831011007 | 54 | 131 | 3.5 | 7.0 | 0.00 | 0.00 | 0.00 | 75 | 1031.9 |
| 20260831010516 | 54 | 216 | 4.3 | 7.0 | 0.00 | 0.00 | 0.00 | 76 | 1031.9 |
| 20260831010038 | 54 | 189 | 3.5 | 7.0 | 0.00 | 0.00 | 0.00 | 76 | 1031.9 |
| 20260831005506 | 54 | 149 | 2.6 | 7.8 | 0.00 | 0.00 | 0.00 | 76 | 1032.0 |
| 20260831005019 | 53 | 194 | 5.2 | 7.0 | 0.00 | 0.00 | 0.00 | 77 | 1032.1 |
| 20260831004514 | 53 | 185 | 3.5 | 6.1 | 0.00 | 0.00 | 0.00 | 78 | 1032.1 |
| 20260831004020 | 53 | 223 | 1.7 | 7.0 | 0.00 | 0.00 | 0.00 | 76 | 1032.1 |
| 20260831003515 | 52 | 197 | 1.7 | 7.0 | 0.00 | 0.00 | 0.00 | 77 | 1032.1 |
| 20260831003012 | 52 | 189 | 3.5 | 7.0 | 0.00 | 0.00 | 0.00 | 77 | 1032.1 |
| 20260831002513 | 52 | 203 | 4.3 | 6.1 | 0.00 | 0.00 | 0.00 | 78 | 1032.1 |
| 20260831002011 | 52 | 220 | 1.7 | 7.0 | 0.00 | 0.00 | 0.00 | 78 | 1032.1 |
| 20260831001517 | 52 | 191 | 3.5 | 7.8 | 0.00 | 0.00 | 0.00 | 79 | 1032.3 |
| 20260831001013 | 52 | 197 | 3.5 | 7.8 | 0.00 | 0.00 | 0.00 | 79 | 1032.3 |
| 20260831000512 | 52 | 203 | 4.3 | 7.8 | 0.00 | 0.00 | 0.00 | 79 | 1032.4 |
| 20260831000024 | 51 | 185 | 3.5 | 6.1 | 0.00 | 0.00 | 0.00 | 80 | 1032.4 |
| 20260830235514 | 51 | 185 | 3.5 | 6.1 | 0.00 | 0.00 | 0.00 | 79 | 1032.2 |
| 20260830235007 | 51 | 206 | 2.6 | 6.1 | 0.00 | 0.00 | 0.00 | 80 | 1032.1 |
| 20260830234540 | 51 | 199 | 3.5 | 6.1 | 0.00 | 0.00 | 0.00 | 80 | 1032.1 |
| 20260830234011 | 51 | 171 | 3.5 | 6.1 | 0.00 | 0.00 | 0.00 | 80 | 1032.3 |
| 20260830233516 | 50 | 210 | 1.7 | 4.3 | 0.00 | 0.00 | 0.00 | 80 | 1032.3 |
| 20260830233030 | 50 | 234 | 0.9 | 4.3 | 0.00 | 0.00 | 0.00 | 80 | 1032.4 |
| 20260830232510 | 50 | 196 | 1.7 | 4.3 | 0.00 | 0.00 | 0.00 | 81 | 1032.1 |
| 20260830232023 | 50 | 226 | 1.7 | 3.5 | 0.00 | 0.00 | 0.00 | 81 | 1032.1 |
| 20260830231515 | 49 | 202 | 0.0 | 2.6 | 0.00 | 0.00 | 0.00 | 81 | 1032.1 |
| 20260830231008 | 49 | 175 | 0.0 | 2.6 | 0.00 | 0.00 | 0.00 | 81 | 1032.4 |
| 20260830230517 | 49 | 229 | 0.0 | 3.5 | 0.00 | 0.00 | 0.00 | 81 | 1032.5 |
| 20260830230020 | 49 | 224 | 1.7 | 3.5 | 0.00 | 0.00 | 0.00 | 81 | 1032.4 |
| 20260830225511 | 49 | 185 | 0.0 | 3.5 | 0.00 | 0.00 | 0.00 | 82 | 1032.3 |
| 20260830225014 | 48 | 191 | 0.9 | 4.3 | 0.00 | 0.00 | 0.00 | 81 | 1032.4 |
| 20260830224517 | 48 | 169 | 2.6 | 4.3 | 0.00 | 0.00 | 0.00 | 82 | 1032.6 |
| 20260830224016 | 48 | 200 | 0.9 | 3.5 | 0.00 | 0.00 | 0.00 | 82 | 1032.6 |
| 20260830223514 | 48 | 112 | 0.9 | 2.6 | 0.00 | 0.00 | 0.00 | 83 | 1032.6 |
| 20260830223036 | 47 | 120 | 0.0 | 3.5 | 0.00 | 0.00 | 0.00 | 83 | 1032.6 |
| 20260830222519 | 47 | 121 | 1.7 | 4.3 | 0.00 | 0.00 | 0.00 | 83 | 1032.6 |
| 20260830222018 | 47 | 151 | 1.7 | 4.3 | 0.00 | 0.00 | 0.00 | 83 | 1032.6 |
| 20260830221537 | 47 | 185 | 1.7 | 4.3 | 0.00 | 0.00 | 0.00 | 83 | 1032.7 |
| 20260830221014 | 47 | 156 | 2.6 | 4.3 | 0.00 | 0.00 | 0.00 | 83 | 1032.7 |
| 20260830220511 | 47 | 116 | 0.0 | 3.5 | 0.00 | 0.00 | 0.00 | 83 | 1032.7 |
| 20260830220019 | 47 | 145 | 1.7 | 4.3 | 0.00 | 0.00 | 0.00 | 83 | 1032.7 |
| 20260830215515 | 47 | 170 | 1.7 | 4.3 | 0.00 | 0.00 | 0.00 | 83 | 1032.7 |
| 20260830215016 | 47 | 142 | 2.6 | 5.2 | 0.00 | 0.00 | 0.00 | 83 | 1032.6 |
| 20260830214523 | 47 | 158 | 2.6 | 5.2 | 0.00 | 0.00 | 0.00 | 83 | 1032.6 |
| 20260830214013 | 47 | 155 | 1.7 | 4.3 | 0.00 | 0.00 | 0.00 | 83 | 1032.5 |
| 20260830213512 | 47 | 129 | 1.7 | 4.3 | 0.00 | 0.00 | 0.00 | 83 | 1032.5 |
| 20260830213029 | 47 | 148 | 1.7 | 5.2 | 0.00 | 0.00 | 0.00 | 83 | 1032.4 |
| 20260830212510 | 47 | 164 | 2.6 | 7.0 | 0.00 | 0.00 | 0.00 | 83 | 1032.3 |
| 20260830212017 | 47 | 156 | 3.5 | 7.0 | 0.00 | 0.00 | 0.00 | 83 | 1032.3 |
| 20260830211525 | 47 | 101 | 2.6 | 7.0 | 0.00 | 0.00 | 0.00 | 83 | 1032.3 |
| 20260830211019 | 47 | 129 | 3.5 | 6.1 | 0.00 | 0.00 | 0.00 | 83 | 1032.3 |
| 20260830210519 | 47 | 164 | 2.6 | 6.1 | 0.00 | 0.00 | 0.00 | 83 | 1032.3 |
| 20260830210024 | 47 | 129 | 3.5 | 6.1 | 0.00 | 0.00 | 0.00 | 83 | 1032.2 |
| 20260830205515 | 47 | 166 | 0.9 | 3.5 | 0.00 | 0.00 | 0.00 | 83 | 1032.1 |
| 20260830205013 | 47 | 153 | 1.7 | 3.5 | 0.00 | 0.00 | 0.00 | 83 | 1032.0 |
| 20260830204537 | 47 | 162 | 1.7 | 7.8 | 0.00 | 0.00 | 0.00 | 82 | 1032.2 |
| 20260830204010 | 47 | 155 | 3.5 | 7.8 | 0.00 | 0.00 | 0.00 | 83 | 1032.3 |
| 20260830203512 | 47 | 167 | 1.7 | 4.3 | 0.00 | 0.00 | 0.00 | 82 | 1032.3 |
| 20260830203044 | 47 | 162 | 2.6 | 7.8 | 0.00 | 0.00 | 0.00 | 82 | 1032.2 |
| 20260830202505 | 47 | 120 | 4.3 | 7.8 | 0.00 | 0.00 | 0.00 | 82 | 1032.2 |
| 20260830202003 | 47 | 145 | 2.6 | 7.8 | 0.00 | 0.00 | 0.00 | 82 | 1032.1 |
| 20260830201503 | 47 | 149 | 6.1 | 7.8 | 0.00 | 0.00 | 0.00 | 82 | 1032.2 |
| 20260830201007 | 47 | 137 | 3.5 | 7.0 | 0.00 | 0.00 | 0.00 | 82 | 1032.0 |
| 20260830200459 | 47 | 151 | 2.6 | 5.2 | 0.00 | 0.00 | 0.00 | 82 | 1032.0 |
| 20260830200002 | 47 | 162 | 1.7 | 4.3 | 0.00 | 0.00 | 0.00 | 82 | 1032.0 |
| 20260830195502 | 47 | 135 | 1.7 | 6.1 | 0.00 | 0.00 | 0.00 | 82 | 1032.1 |
| 20260830195002 | 47 | 189 | 3.5 | 6.1 | 0.00 | 0.00 | 0.00 | 82 | 1032.0 |
| 20260830194504 | 48 | 130 | 2.6 | 7.0 | 0.00 | 0.00 | 0.00 | 82 | 1032.0 |
| 20260830194003 | 48 | 172 | 1.7 | 7.0 | 0.00 | 0.00 | 0.00 | 82 | 1032.0 |
| 20260830193502 | 47 | 145 | 3.5 | 7.0 | 0.00 | 0.00 | 0.00 | 82 | 1032.0 |
| 20260830193007 | 48 | 114 | 4.3 | 7.0 | 0.00 | 0.00 | 0.00 | 82 | 1032.0 |
| 20260830192505 | 48 | 129 | 3.5 | 7.0 | 0.00 | 0.00 | 0.00 | 82 | 1032.0 |
| 20260830192004 | 48 | 151 | 4.3 | 7.0 | 0.00 | 0.00 | 0.00 | 82 | 1032.1 |
| 20260830191509 | 48 | 152 | 3.5 | 5.2 | 0.00 | 0.00 | 0.00 | 83 | 1032.0 |
| 20260830191001 | 48 | 172 | 1.7 | 5.2 | 0.00 | 0.00 | 0.00 | 83 | 1032.0 |
| 20260830190504 | 48 | 191 | 2.6 | 7.8 | 0.00 | 0.00 | 0.00 | 82 | 1032.0 |
| 20260830190004 | 48 | 185 | 3.5 | 7.8 | 0.00 | 0.00 | 0.00 | 82 | 1031.9 |
| 20260830185503 | 48 | 134 | 2.6 | 5.2 | 0.00 | 0.00 | 0.00 | 83 | 1031.9 |
| 20260830185004 | 48 | 180 | 2.6 | 6.1 | 0.00 | 0.00 | 0.00 | 83 | 1031.9 |
| 20260830184508 | 48 | 132 | 3.5 | 6.1 | 0.00 | 0.00 | 0.00 | 83 | 1031.9 |
| 20260830184008 | 48 | 132 | 1.7 | 7.0 | 0.00 | 0.00 | 0.00 | 84 | 1032.0 |
| 20260830183502 | 48 | 172 | 3.5 | 7.0 | 0.00 | 0.00 | 0.00 | 84 | 1032.0 |
| 20260830183003 | 48 | 163 | 1.7 | 4.3 | 0.00 | 0.00 | 0.00 | 84 | 1032.0 |
| 20260830182503 | 48 | 185 | 2.6 | 8.7 | 0.00 | 0.00 | 0.00 | 84 | 1032.1 |
| 20260830182004 | 48 | 180 | 4.3 | 8.7 | 0.00 | 0.00 | 0.00 | 85 | 1032.0 |
| 20260830181504 | 48 | 149 | 2.6 | 7.0 | 0.00 | 0.00 | 0.00 | 85 | 1032.1 |
| 20260830181004 | 48 | 175 | 2.6 | 7.0 | 0.00 | 0.00 | 0.00 | 85 | 1032.2 |
| 20260830180505 | 48 | 160 | 3.5 | 7.0 | 0.00 | 0.00 | 0.00 | 86 | 1032.2 |
| 20260830180003 | 48 | 127 | 2.6 | 5.2 | 0.00 | 0.00 | 0.00 | 86 | 1032.2 |
| 20260830175507 | 48 | 154 | 2.6 | 5.2 | 0.00 | 0.00 | 0.00 | 86 | 1032.2 |
| 20260830175004 | 48 | 147 | 2.6 | 6.1 | 0.00 | 0.00 | 0.00 | 86 | 1032.2 |
| 20260830174503 | 48 | 141 | 2.6 | 6.1 | 0.00 | 0.00 | 0.00 | 86 | 1032.2 |
| 20260830174003 | 48 | 185 | 3.5 | 6.1 | 0.00 | 0.00 | 0.00 | 86 | 1032.2 |
| 20260830173502 | 48 | 163 | 3.5 | 6.1 | 0.00 | 0.00 | 0.00 | 87 | 1032.2 |
| 20260830173012 | 48 | 189 | 3.5 | 6.1 | 0.00 | 0.00 | 0.00 | 87 | 1032.3 |
| 20260830172506 | 48 | 175 | 2.6 | 4.3 | 0.00 | 0.00 | 0.00 | 87 | 1032.2 |
| 20260830172003 | 48 | 165 | 1.7 | 4.3 | 0.00 | 0.00 | 0.00 | 87 | 1032.2 |
| 20260830171503 | 48 | 185 | 3.5 | 4.3 | 0.00 | 0.00 | 0.00 | 87 | 1032.2 |
| 20260830171004 | 48 | 172 | 2.6 | 4.3 | 0.00 | 0.00 | 0.00 | 87 | 1032.2 |
| 20260830170506 | 48 | 180 | 2.6 | 4.3 | 0.00 | 0.00 | 0.00 | 87 | 1032.2 |
| 20260830170007 | 48 | 180 | 2.6 | 4.3 | 0.00 | 0.00 | 0.00 | 88 | 1032.2 |
| 20260830165504 | 48 | 175 | 2.6 | 4.3 | 0.00 | 0.00 | 0.00 | 88 | 1032.2 |
| 20260830165005 | 48 | 159 | 1.7 | 6.1 | 0.00 | 0.00 | 0.00 | 88 | 1032.2 |
| 20260830164508 | 48 | 155 | 2.6 | 6.1 | 0.00 | 0.00 | 0.00 | 88 | 1032.2 |
| 20260830164006 | 48 | 185 | 2.6 | 5.2 | 0.00 | 0.00 | 0.00 | 88 | 1032.3 |
| 20260830163506 | 48 | 180 | 3.5 | 5.2 | 0.00 | 0.00 | 0.00 | 88 | 1032.3 |
| 20260830163006 | 48 | 196 | 2.6 | 5.2 | 0.00 | 0.00 | 0.00 | 88 | 1032.4 |
| 20260830162509 | 48 | 149 | 3.5 | 5.2 | 0.00 | 0.00 | 0.00 | 88 | 1032.4 |
| 20260830162003 | 48 | 130 | 2.6 | 4.3 | 0.00 | 0.00 | 0.00 | 88 | 1032.4 |
| 20260830161504 | 48 | 147 | 1.7 | 6.1 | 0.00 | 0.00 | 0.00 | 88 | 1032.4 |
| 20260830161009 | 48 | 171 | 2.6 | 6.1 | 0.00 | 0.00 | 0.00 | 88 | 1032.5 |
| 20260830160503 | 48 | 149 | 2.6 | 4.3 | 0.00 | 0.00 | 0.00 | 88 | 1032.6 |
| 20260830160008 | 48 | 180 | 1.7 | 4.3 | 0.00 | 0.00 | 0.00 | 88 | 1032.6 |
| 20260830155506 | 48 | 141 | 2.6 | 4.3 | 0.00 | 0.00 | 0.00 | 88 | 1032.6 |
| 20260830155003 | 48 | 137 | 1.7 | 3.5 | 0.00 | 0.00 | 0.00 | 88 | 1032.7 |
| 20260830154507 | 48 | 139 | 2.6 | 3.5 | 0.00 | 0.00 | 0.00 | 88 | 1032.6 |
| 20260830154004 | 48 | 169 | 1.7 | 3.5 | 0.00 | 0.00 | 0.00 | 88 | 1032.7 |
| 20260830153505 | 48 | 175 | 1.7 | 3.5 | 0.00 | 0.00 | 0.00 | 88 | 1032.7 |
| 20260830153007 | 48 | 150 | 0.9 | 3.5 | 0.00 | 0.00 | 0.00 | 88 | 1032.7 |
| 20260830152503 | 48 | 164 | 1.7 | 4.3 | 0.00 | 0.00 | 0.00 | 88 | 1032.8 |
| 20260830152003 | 48 | 140 | 1.7 | 4.3 | 0.00 | 0.00 | 0.00 | 88 | 1032.8 |
| 20260830151530 | 48 | 170 | 2.6 | 4.3 | 0.00 | 0.00 | 0.00 | 88 | 1032.8 |
| 20260830151004 | 48 | 149 | 2.6 | 5.2 | 0.00 | 0.00 | 0.00 | 88 | 1032.8 |
| 20260830150511 | 48 | 125 | 2.6 | 6.1 | 0.00 | 0.00 | 0.00 | 88 | 1032.8 |
| 20260830150011 | 48 | 164 | 2.6 | 6.1 | 0.00 | 0.00 | 0.00 | 88 | 1032.8 |
| 20260830145503 | 48 | 139 | 3.5 | 6.1 | 0.00 | 0.00 | 0.00 | 88 | 1032.8 |
| 20260830145004 | 48 | 162 | 2.6 | 5.2 | 0.00 | 0.00 | 0.00 | 88 | 1032.8 |
| 20260830144504 | 48 | 138 | 2.6 | 5.2 | 0.00 | 0.00 | 0.00 | 88 | 1032.7 |
| 20260830144003 | 48 | 175 | 2.6 | 7.0 | 0.00 | 0.00 | 0.00 | 88 | 1032.8 |
| 20260830143507 | 48 | 118 | 3.5 | 7.0 | 0.00 | 0.00 | 0.00 | 88 | 1032.8 |
| 20260830143005 | 48 | 126 | 4.3 | 7.0 | 0.00 | 0.00 | 0.00 | 88 | 1032.8 |
| 20260830142507 | 48 | 144 | 2.6 | 5.2 | 0.00 | 0.00 | 0.00 | 88 | 1032.8 |
| 20260830142007 | 48 | 160 | 2.6 | 7.0 | 0.00 | 0.00 | 0.00 | 88 | 1032.9 |
| 20260830141504 | 48 | 131 | 3.5 | 7.0 | 0.00 | 0.00 | 0.00 | 87 | 1032.9 |
| 20260830141008 | 48 | 152 | 3.5 | 7.8 | 0.00 | 0.00 | 0.00 | 87 | 1032.9 |
| 20260830140505 | 48 | 139 | 4.3 | 7.8 | 0.00 | 0.00 | 0.00 | 87 | 1033.0 |
| 20260830140023 | 47 | 153 | 4.3 | 7.0 | 0.00 | 0.00 | 0.00 | 87 | 1033.1 |
| 20260830135507 | 47 | 135 | 3.5 | 7.0 | 0.00 | 0.00 | 0.00 | 87 | 1033.1 |
| 20260830135005 | 47 | 116 | 3.5 | 7.0 | 0.00 | 0.00 | 0.00 | 87 | 1033.2 |
| 20260830134528 | 47 | 175 | 2.6 | 7.0 | 0.00 | 0.00 | 0.00 | 87 | 1033.2 |
| 20260830134008 | 47 | 147 | 3.5 | 7.0 | 0.00 | 0.00 | 0.00 | 87 | 1033.3 |
| 20260830133505 | 47 | 145 | 2.6 | 4.3 | 0.00 | 0.00 | 0.00 | 87 | 1033.3 |
| 20260830133004 | 46 | 191 | 0.9 | 2.6 | 0.00 | 0.00 | 0.00 | 87 | 1033.3 |
| 20260830132504 | 46 | 208 | 0.9 | 1.7 | 0.00 | 0.00 | 0.00 | 86 | 1033.3 |
| 20260830132006 | 46 | 208 | 0.9 | 2.6 | 0.00 | 0.00 | 0.00 | 86 | 1033.4 |
| 20260830131522 | 46 | 208 | 0.0 | 3.5 | 0.00 | 0.00 | 0.00 | 86 | 1033.4 |
| 20260830131006 | 46 | 190 | 1.7 | 3.5 | 0.00 | 0.00 | 0.00 | 86 | 1033.4 |
| 20260830130507 | 46 | 191 | 1.7 | 3.5 | 0.00 | 0.00 | 0.00 | 86 | 1033.4 |
| 20260830130012 | 46 | 164 | 0.9 | 2.6 | 0.00 | 0.00 | 0.00 | 86 | 1033.3 |